Weather History for Bonilla Island, BC

Change the Weather History Date:

Tuesday, February 26, 2013

  Actual Average Record
Temperature  
Mean Temperature 40 °F -  
Max Temperature 44 °F - - ()
Min Temperature 36 °F - - ()
Degree Days  
Heating Degree Days 25    
Moisture  
Dew Point 36 °F    
Average Humidity 80    
Maximum Humidity 94    
Minimum Humidity 63    
Precipitation  
Precipitation 0.47 in - - ()
Sea Level Pressure  
Sea Level Pressure 29.77 in    
Wind  
Wind Speed 29 mph ()    
Max Wind Speed 45 mph    
Max Gust Speed 61 mph    
T = Trace of Precipitation, MM = Missing Value Source: Averaged Metar Reports

Daily Weather History Graph

Daily Weather History Graph

Search for Another Location

Airport:

Trip Planner

Search our weather history database for the weather conditions in past years. The results will help you decide how hot, cold, wet, or windy it might be!

Date:

Astronomy

Feb. 26, 2013 Rise Set
Actual Time 7:36 AM PST 6:15 PM PST
Civil Twilight 7:00 AM PST 6:50 PM PST
Nautical Twilight 6:20 AM PST 7:31 PM PST
Astronomical Twilight 5:40 AM PST 8:11 PM PST
Moon 7:59 PM PST (2/26) 7:27 AM PST (2/26)
Length of Visible Light 11h 49m
Length of Day
10h 39m
Full, 99% of the Moon is Illuminated
Feb 26
Full
Mar 4
Last Quarter
Mar 11
New
Mar 19
First Quarter
Mar 27
Full

Hourly Weather History & Observations

Time (PST) Temp. Windchill Dew Point Humidity Pressure Visibility Wind Dir Wind Speed Gust Speed Precip Events Conditions
12:00 AM 42.3 °F 30.5 °F 34.2 °F 73% 29.91 in - South 36.8 mph 44.9 mph N/A   Unknown
1:00 AM 42.4 °F 31.1 °F 36.7 °F 80% 29.88 in - SSE 34.5 mph 43.7 mph N/A   Unknown
2:00 AM 43.0 °F 31.4 °F 36.5 °F 78% 29.86 in - SSE 38.0 mph 47.2 mph N/A   Unknown
3:00 AM 42.8 °F 31.0 °F 36.3 °F 78% 29.82 in - SSE 39.1 mph 46.0 mph N/A   Unknown
4:00 AM 42 °F - 37 °F 76% 29.77 in - SSE 42.6 mph - -  
4:00 AM 41.9 °F 29.3 °F 37.0 °F 83% 29.77 in - SSE 42.6 mph 52.9 mph N/A   Unknown
5:00 AM 41.0 °F 27.7 °F 37.2 °F 86% 29.75 in - SSE 44.9 mph 61.0 mph 0.02 in   Unknown
6:00 AM 39.7 °F 28.3 °F 37.4 °F 91% 29.74 in - SSE 28.8 mph 51.8 mph 0.05 in   Unknown
7:00 AM 37.8 °F 26.1 °F 36.1 °F 94% 29.73 in - SSE 26.5 mph 47.2 mph 0.11 in   Unknown
8:00 AM 37.6 °F 25.9 °F 36.0 °F 94% 29.70 in - SSE 26.5 mph 40.3 mph 0.12 in   Unknown
9:00 AM 39.2 °F 26.3 °F 37.2 °F 93% 29.67 in - SSE 36.8 mph 51.8 mph 0.05 in   Unknown
10:00 AM 40 °F - 38 °F 88% 29.70 in - SSE 32.2 mph - -  
10:00 AM 39.6 °F 27.5 °F 37.6 °F 93% 29.70 in - SSE 32.2 mph 54.1 mph 0.10 in   Unknown
11:00 AM 41.0 °F 30.7 °F 36.5 °F 84% 29.70 in - SSE 25.3 mph 34.5 mph N/A   Unknown
12:00 PM 41.5 °F 32.4 °F 36.9 °F 83% 29.72 in - South 20.7 mph - 0.02 in   Unknown
1:00 PM 43.3 °F 34.5 °F 37.8 °F 81% 29.74 in - South 21.9 mph - N/A   Unknown
2:00 PM 43.0 °F 33.5 °F 36.3 °F 77% 29.74 in - South 24.2 mph 39.1 mph N/A   Unknown
3:00 PM 43.9 °F 34.7 °F 36.5 °F 75% 29.74 in - South 24.2 mph - N/A   Unknown
4:00 PM 44 °F - 36 °F 63% 29.75 in - South 25.3 mph - -  
4:00 PM 44.1 °F 34.8 °F 35.6 °F 72% 29.75 in - South 25.3 mph - N/A   Unknown
5:00 PM 42.6 °F 33.3 °F 36.7 °F 79% 29.76 in - South 23.0 mph - N/A   Unknown
6:00 PM 41.9 °F 31.7 °F 34.7 °F 76% 29.77 in - SSW 26.5 mph 33.4 mph N/A   Unknown
7:00 PM 42.8 °F 33.3 °F 34.5 °F 73% 29.79 in - South 24.2 mph - N/A   Unknown
8:00 PM 42.8 °F 33.3 °F 36.3 °F 78% 29.81 in - South 24.2 mph - N/A   Unknown
9:00 PM 43.2 °F 33.4 °F 35.2 °F 74% 29.82 in - South 26.5 mph - N/A   Unknown
10:00 PM 43 °F - 35 °F 64% 29.83 in - South 26.5 mph - -  
10:00 PM 42.6 °F 32.6 °F 34.9 °F 74% 29.83 in - South 26.5 mph - N/A   Unknown
11:00 PM 42.4 °F 32.4 °F 35.6 °F 77% 29.84 in - South 26.5 mph - N/A   Unknown